CCA57 VRMM-ZSWZ

Flight info

Callsign CCA57
Flight time N/A
Altitude FL350
Route ATSO1A ATSON G465 KAT P762 LALIT M502 BKK W1 KRT B460 SAV A202 SAMAS G221 BIGRO R200 BEBEM A470 LJG B221 MUDOD W76 UNRUP UNRU3A
Aircraft A21N/M-SDE2E3FGHIJ1RWXY/LB1

Departure

Time 2026-05-08 01:01
Airport Velana International Airport (VRMM)

Arrival

Time N/A
Airport Wenzhou Longwan International Airport (ZSWZ)
Time Latitude Longitude Altitude Speed Heading
2026-05-08 00:53 4.18690 73.52753 22 ft 0 kts 270°
2026-05-08 00:56 4.18690 73.52756 22 ft 3 kts 269°
2026-05-08 00:57 4.18691 73.52782 22 ft 4 kts 269°
2026-05-08 00:57 4.18691 73.52809 22 ft 4 kts 269°
2026-05-08 00:57 4.18692 73.52831 22 ft 4 kts 259°
2026-05-08 00:57 4.18702 73.52850 25 ft 4 kts 202°
2026-05-08 00:58 4.18725 73.52854 24 ft 2 kts 180°
2026-05-08 00:58 4.18730 73.52854 22 ft 0 kts 180°
2026-05-08 01:00 4.18241 73.53102 19 ft 0 kts 360°
2026-05-08 01:00 4.18242 73.53102 19 ft 2 kts 360°
2026-05-08 01:01 4.18523 73.53101 22 ft 78 kts 359°
2026-05-08 01:01 4.19289 73.53098 23 ft 142 kts
2026-05-08 01:01 4.20429 73.53078 278 ft 165 kts 358°
2026-05-08 01:01 4.21526 73.53097 936 ft 160 kts 357°
2026-05-08 01:02 4.22656 73.53126 1583 ft 163 kts 356°
2026-05-08 01:02 4.23820 73.53112 2133 ft 169 kts 355°
2026-05-08 01:02 4.24949 73.53104 2729 ft 171 kts 356°
2026-05-08 01:02 4.26225 73.53098 3239 ft 189 kts 355°
2026-05-08 01:03 4.27611 73.53092 3693 ft 208 kts 356°
2026-05-08 01:03 4.29087 73.53096 4228 ft 225 kts 357°
2026-05-08 01:03 4.30685 73.53096 4567 ft 250 kts 357°
2026-05-08 01:03 4.32549 73.53095 5055 ft 267 kts 357°
2026-05-08 01:04 4.34420 73.53095 5771 ft 271 kts 358°
2026-05-08 01:04 4.36309 73.53095 6539 ft 274 kts 357°
2026-05-08 01:04 4.38187 73.53130 7258 ft 278 kts
2026-05-08 01:04 4.40076 73.53702 7958 ft 286 kts 28°
2026-05-08 01:05 4.41544 73.55052 8665 ft 295 kts 54°
2026-05-08 01:05 4.42296 73.56910 9348 ft 301 kts 81°
2026-05-08 01:05 4.42373 73.58989 10011 ft 307 kts 90°